Cairns, Australia

6:55 PM AEST on June 26, 2017 (GMT +1000)
Cairns International

Weather History for YBCS - June, 2013

Change the Weather History Date:

Sunday, June 30, 2013

  Actual Average Record
Temperature  
Mean Temperature 70 °F -  
Max Temperature 79 °F 78 °F 82 °F (2005)
Min Temperature 62 °F 62 °F 48 °F (2007)
Cooling Degree Days 6    
Growing Degree Days 20 (Base 50)    
Moisture  
Dew Point 59 °F    
Average Humidity 67    
Maximum Humidity 88    
Minimum Humidity 40    
Precipitation  
Precipitation 0.00 in 0.03 in - ()
Sea Level Pressure  
Sea Level Pressure 30.02 in    
Wind  
Wind Speed 9 mph ()    
Max Wind Speed 16 mph    
Max Gust Speed -    
Visibility 6.8 miles    
Events      
Averages and records for this station are not official NWS values.
T = Trace of Precipitation, MM = Missing Value Source: Averaged Metar Reports

Daily Weather History Graph

Daily Weather History Graph

Search for Another Location

Airport or City:

Trip Planner

Search our weather history database for the weather conditions in past years. The results will help you decide how hot, cold, wet, or windy it might be!

Date:

Astronomy

Jun. 30, 2013 Rise Set
Actual Time 6:46 AM AEST 5:54 PM AEST
Civil Twilight 6:23 AM AEST 6:18 PM AEST
Nautical Twilight 5:56 AM AEST 6:45 PM AEST
Astronomical Twilight 5:29 AM AEST 7:11 PM AEST
Moon No Moon Rise 11:56 AM AEST (6/30)
Length of Visible Light 11h 55m
Length of Day
11h 08m
Waning Gibbous, 51% of the Moon is Illuminated
Jun 30
Waning Gibbous
Jun 30
Last Quarter
Jul 8
New
Jul 16
First Quarter
Jul 23
Full

Hourly Weather History & Observations

Time (AEST) Temp. Dew Point Humidity Pressure Visibility Wind Dir Wind Speed Gust Speed Precip Events Conditions
12:00 AM 69 °F 61 °F 69% 30.05 in - South 6.9 mph - -  
12:00 AM 68.0 °F 60.8 °F 78% 30.04 in - South 6.9 mph - N/A   Clear
12:30 AM 68.0 °F 60.8 °F 78% 30.04 in - South 5.8 mph - N/A   Clear
1:00 AM 66 °F 61 °F 78% 30.05 in - SSE 9.2 mph - -  
1:00 AM 66.2 °F 60.8 °F 83% 30.04 in 6.2 mi SSE 9.2 mph - N/A   Partly Cloudy
1:30 AM 64.4 °F 60.8 °F 88% 30.04 in 6.2 mi SSE 10.4 mph - N/A   Partly Cloudy
2:00 AM 64.4 °F 60.8 °F 88% 30.01 in - SE 9.2 mph - N/A   Clear
2:30 AM 64.4 °F 60.8 °F 88% 30.01 in - SE 9.2 mph - N/A   Clear
3:00 AM 64 °F 60 °F 83% 30.01 in - SSE 12.7 mph - -  
3:00 AM 64.4 °F 60.8 °F 88% 30.01 in - SSE 12.7 mph - N/A   Clear
3:30 AM 64.4 °F 59.0 °F 83% 30.01 in 6.2 mi SSE 11.5 mph - N/A   Partly Cloudy
4:00 AM 64 °F 59 °F 79% 30.01 in - SE 10.4 mph - -  
4:00 AM 64.4 °F 59.0 °F 83% 30.01 in - SE 10.4 mph - N/A   Clear
4:30 AM 62.6 °F 59.0 °F 88% 30.01 in 6.2 mi SE 11.5 mph - N/A   Partly Cloudy
5:00 AM 62.6 °F 59.0 °F 88% 30.01 in - SSE 11.5 mph - N/A   Clear
5:30 AM 62.6 °F 59.0 °F 88% 30.01 in - SSE 12.7 mph - N/A   Clear
6:00 AM 64 °F 58 °F 75% 30.03 in 19 mi SSE 12.7 mph - -   Partly Cloudy
6:00 AM 64.4 °F 59.0 °F 83% 30.01 in 6.2 mi SSE 12.7 mph - N/A   Partly Cloudy
6:30 AM 62.6 °F 59.0 °F 88% 30.04 in 6.2 mi SE 8.1 mph - N/A   Partly Cloudy
7:00 AM 63 °F 58 °F 79% 30.05 in - SSE 9.2 mph - -  
7:00 AM 62.6 °F 59.0 °F 88% 30.04 in 6.2 mi SSE 9.2 mph - N/A   Partly Cloudy
7:30 AM 64.4 °F 59.0 °F 83% 30.04 in 6.2 mi SE 9.2 mph - N/A   Partly Cloudy
8:00 AM 66.2 °F 59.0 °F 78% 30.04 in 6.2 mi SSE 8.1 mph - N/A   Partly Cloudy
8:30 AM 69.8 °F 60.8 °F 73% 30.06 in 6.2 mi SSE 5.8 mph - N/A   Partly Cloudy
9:00 AM 73 °F 59 °F 53% 30.06 in 25 mi SW 4.6 mph - -   Partly Cloudy
9:00 AM 73.4 °F 59.0 °F 61% 30.06 in 6.2 mi SW 4.6 mph - N/A   Partly Cloudy
9:30 AM 73.4 °F 59.0 °F 61% 30.06 in 6.2 mi South 9.2 mph - N/A   Partly Cloudy
10:00 AM 74 °F 60 °F 51% 30.07 in - South 8.1 mph - -  
10:00 AM 73.4 °F 59.0 °F 61% 30.06 in 6.2 mi South 8.1 mph - N/A   Partly Cloudy
10:30 AM 75.2 °F 60.8 °F 61% 30.06 in 6.2 mi South 8.1 mph - N/A   Partly Cloudy
11:00 AM 77.0 °F 60.8 °F 57% 30.04 in 6.2 mi SSE 10.4 mph - N/A   Partly Cloudy
11:30 AM 77.0 °F 60.8 °F 57% 30.04 in 6.2 mi SE 10.4 mph - N/A   Partly Cloudy
12:00 PM 79 °F 60 °F 41% 30.03 in 25 mi ESE 12.7 mph - -   Partly Cloudy
12:00 PM 78.8 °F 59.0 °F 51% 30.01 in 6.2 mi ESE 12.7 mph - N/A   Partly Cloudy
12:30 PM 78.8 °F 59.0 °F 51% 30.01 in 6.2 mi ESE 11.5 mph - N/A   Partly Cloudy
1:00 PM 78 °F 58 °F 40% 30.01 in - ESE 10.4 mph - -  
1:00 PM 78.8 °F 59.0 °F 51% 30.01 in 6.2 mi ESE 10.4 mph - N/A   Partly Cloudy
1:30 PM 78.8 °F 57.2 °F 47% 29.98 in 6.2 mi SE 15.0 mph - N/A   Partly Cloudy
2:00 PM 77.0 °F 59.0 °F 54% 29.98 in 6.2 mi ESE 12.7 mph - N/A   Partly Cloudy
2:30 PM 77.0 °F 55.4 °F 47% 29.98 in 6.2 mi SE 13.8 mph - N/A   Partly Cloudy
3:00 PM 76 °F 56 °F 40% 29.98 in 19 mi SE 13.8 mph - -   Partly Cloudy
3:00 PM 75.2 °F 55.4 °F 50% 29.98 in 6.2 mi SE 13.8 mph - N/A   Scattered Clouds
3:30 PM 75.2 °F 59.0 °F 57% 29.98 in 6.2 mi SE 16.1 mph - N/A   Scattered Clouds
4:00 PM 74 °F 59 °F 50% 29.99 in - SE 13.8 mph - -  
4:00 PM 75.2 °F 59.0 °F 57% 29.98 in 6.2 mi SE 13.8 mph - N/A   Mostly Cloudy
4:30 PM 73.4 °F 60.8 °F 65% 29.98 in 6.2 mi SE 15.0 mph - N/A   Mostly Cloudy
5:00 PM 73.4 °F 59.0 °F 61% 29.98 in 6.2 mi SE 15.0 mph - N/A   Mostly Cloudy
5:30 PM 71.6 °F 59.0 °F 64% 30.01 in 6.2 mi SSE 13.8 mph - N/A   Mostly Cloudy
6:00 PM 71 °F 58 °F 56% 30.01 in - SSE 11.5 mph - -  
6:00 PM 71.6 °F 59.0 °F 64% 30.01 in 6.2 mi SSE 11.5 mph - N/A   Mostly Cloudy
6:30 PM 71.6 °F 57.2 °F 60% 30.01 in 6.2 mi SSE 11.5 mph - N/A   Mostly Cloudy
7:00 PM 71 °F 57 °F 52% 30.03 in - South 9.2 mph - -  
7:00 PM 71.6 °F 57.2 °F 60% 30.01 in 6.2 mi South 9.2 mph - N/A   Scattered Clouds
7:30 PM 69.8 °F 57.2 °F 64% 30.01 in 6.2 mi South 10.4 mph - N/A   Scattered Clouds
8:00 PM 69.8 °F 57.2 °F 64% 30.01 in 6.2 mi South 10.4 mph - N/A   Scattered Clouds
8:30 PM 69.8 °F 57.2 °F 64% 30.04 in 6.2 mi SSE 10.4 mph - N/A   Scattered Clouds
9:00 PM 69 °F 57 °F 57% 30.04 in - South 6.9 mph - -  
9:00 PM 69.8 °F 57.2 °F 64% 30.04 in 6.2 mi South 6.9 mph - N/A   Scattered Clouds
9:30 PM 69.8 °F 57.2 °F 64% 30.04 in 6.2 mi South 6.9 mph - N/A   Scattered Clouds
10:00 PM 65 °F 58 °F 71% 30.06 in - SSE 5.8 mph - -  
10:00 PM 66.2 °F 57.2 °F 73% 30.04 in 6.2 mi SSE 5.8 mph - N/A   Scattered Clouds
10:30 PM 64.4 °F 59.0 °F 83% 30.04 in 6.2 mi SSE 4.6 mph - N/A   Scattered Clouds
11:00 PM 64.4 °F 57.2 °F 77% 30.04 in 6.2 mi SE 8.1 mph - N/A   Partly Cloudy
11:30 PM 64.4 °F 57.2 °F 77% 30.04 in 6.2 mi SE 10.4 mph - N/A   Partly Cloudy